Location: Running Springs
(34.2078°N, 117.1092°W)
Time: 16:28:04
(UTC+00:00)

Cosmos 2278 Rocket - Pass Details

Date: 13 April 2024
Orbit: 839 x 846 km, 71.0° (Epoch: 26 May)

Event Time Altitude Azimuth Distance (km) Brightness Sun altitude
Rises 12:25:57 0° 323° (NW) 3,410 5.2 -11.4°
Reaches altitude 10° 12:28:53 10° 309° (NW) 2,470 4.3 -10.8°
Maximum altitude 12:33:11 23° 259° (W) 1,732 3.2 -10.0°
Drops below altitude 10° 12:37:29 10° 209° (SSW) 2,457 4.2 -9.1°
Sets 12:40:24 0° 195° (SSW) 3,386 5.0 -8.6°
